Location: São Paulo
(23.5507°S, 46.6334°W)
Time: 20:30:27
(UTC-03:00)

Altair - All Passes

Search period start: 16 February 2026 00:00
Search period end: 26 February 2026 00:00
Orbit: 1502 x 1682 km, 47.2° (Epoch: 15 February)

Date Brightness Start Highest point End Pass type
(mag) Time Alt. Az. Time Alt. Az. Time Alt. Az.
16 Feb - 00:20:35 10° SW 00:30:11 85° SE 00:39:25 10° NE visible
16 Feb - 02:27:36 10° W 02:34:05 21° NW 02:40:29 10° N night (unlit)
16 Feb - 13:25:12 10° N 13:32:14 21° NE 13:39:17 10° E daylight
16 Feb - 15:26:10 10° NW 15:36:22 90° SW 15:46:31 10° SE daylight
16 Feb - 17:33:37 10° W 17:42:12 30° SSW 17:50:40 10° SSE daylight
16 Feb - 19:44:38 10° SW 19:50:27 17° S 19:56:11 10° SE visible
16 Feb - 21:51:10 10° SSW 21:58:56 26° SSE 22:06:25 10° ESE visible
16 Feb - 23:55:20 10° SW 00:04:57 78° SE 00:14:11 10° NE visible
17 Feb - 02:01:53 10° WSW 02:08:56 24° NW 02:15:52 10° N night (unlit)
17 Feb - 13:00:41 10° NNE 13:07:03 19° NE 13:13:25 10° E daylight
17 Feb - 15:00:55 10° NW 15:11:06 83° NE 15:21:14 10° SE daylight
17 Feb - 17:07:58 10° W 17:16:46 32° SSW 17:25:29 10° SSE daylight
17 Feb - 19:18:57 10° SW 19:24:53 17° S 19:30:44 10° SSE visible
17 Feb - 21:25:55 10° SSW 21:33:28 24° SSE 21:40:48 10° ESE visible
17 Feb - 23:30:05 10° SW 23:39:42 71° SE 23:48:55 10° NE visible
18 Feb - 01:36:16 10° WSW 01:43:47 28° NW 01:51:11 10° N night (unlit)
18 Feb - 12:36:19 10° NNE 12:41:51 16° ENE 12:47:23 10° E daylight
18 Feb - 14:35:42 10° NW 14:45:50 77° NE 14:55:58 10° SE daylight
18 Feb - 16:42:20 10° W 16:51:21 35° SSW 17:00:17 10° SSE daylight
18 Feb - 18:53:15 10° SW 18:59:19 17° S 19:05:18 10° SSE visible
18 Feb - 21:00:38 10° SSW 21:08:01 23° SSE 21:15:10 10° ESE visible
18 Feb - 23:04:51 10° SW 23:14:27 65° SE 23:23:39 10° ENE visible
19 Feb - 01:10:41 10° WSW 01:18:38 31° NW 01:26:24 10° N visible
19 Feb - 12:12:14 10° NNE 12:16:40 14° ENE 12:21:06 10° E daylight
19 Feb - 14:10:31 10° NNW 14:20:35 70° NE 14:30:40 10° SE daylight
19 Feb - 16:16:44 10° W 16:25:57 38° SSW 16:35:05 10° SSE daylight
19 Feb - 18:27:31 10° SW 18:33:46 18° S 18:39:55 10° SSE daylight
19 Feb - 20:35:21 10° SSW 20:42:32 22° SSE 20:49:30 10° ESE visible
19 Feb - 22:39:36 10° SW 22:49:10 60° SE 22:58:19 10° ENE visible
20 Feb - 00:45:11 10° WSW 00:53:29 35° NW 01:01:35 10° N visible
20 Feb - 11:48:41 10° NE 11:51:28 11° ENE 11:54:15 10° ENE daylight
20 Feb - 13:45:23 10° NNW 13:55:20 64° NE 14:05:20 10° SE daylight
20 Feb - 15:51:10 10° WNW 16:00:33 41° SW 16:09:53 10° SE daylight
20 Feb - 18:01:46 10° SW 18:08:12 18° S 18:14:33 10° SSE daylight
20 Feb - 20:10:02 10° SSW 20:17:02 21° SSE 20:23:50 10° ESE visible
20 Feb - 22:14:22 10° SW 22:23:53 55° SE 22:32:58 10° ENE visible
21 Feb - 00:19:42 10° WSW 00:28:19 40° NW 00:36:42 10° NNE visible
21 Feb - 13:20:17 10° NNW 13:30:06 58° NE 13:39:58 10° SE daylight
21 Feb - 15:25:37 10° WNW 15:35:10 44° SW 15:44:42 10° SE daylight
21 Feb - 17:36:00 10° SW 17:42:39 19° SSW 17:49:13 10° SSE daylight
21 Feb - 19:44:43 10° SSW 19:51:31 20° SSE 19:58:09 10° ESE visible
21 Feb - 21:49:09 10° SW 21:58:34 50° SE 22:07:35 10° ENE visible
21 Feb - 23:54:16 10° WSW 00:03:09 45° NW 00:11:46 10° NNE visible
22 Feb - 12:55:13 10° NNW 13:04:52 52° NE 13:14:36 10° ESE daylight
22 Feb - 15:00:07 10° WNW 15:09:48 48° SW 15:19:29 10° SE daylight
22 Feb - 17:10:14 10° WSW 17:17:06 20° SSW 17:23:54 10° SSE daylight
22 Feb - 19:19:21 10° SSW 19:25:59 19° SSE 19:32:29 10° SE visible
22 Feb - 21:23:55 10° SW 21:33:15 46° SE 21:42:11 10° ENE visible
22 Feb - 23:28:51 10° WSW 23:37:59 50° NW 23:46:48 10° NNE visible
23 Feb - 12:30:12 10° NNW 12:39:38 47° NE 12:49:11 10° ESE daylight
23 Feb - 14:34:38 10° WNW 14:44:26 52° SW 14:54:17 10° SE daylight
23 Feb - 16:44:27 10° WSW 16:51:34 21° SSW 16:58:36 10° SSE daylight
23 Feb - 18:53:58 10° SSW 19:00:27 19° S 19:06:48 10° SE visible
23 Feb - 20:58:41 10° SW 21:07:55 43° SE 21:16:44 10° ENE visible
23 Feb - 23:03:29 10° SW 23:12:49 56° NW 23:21:48 10° NNE visible
24 Feb - 12:05:13 10° NNW 12:14:26 42° NE 12:23:45 10° ESE daylight
24 Feb - 14:09:11 10° WNW 14:19:05 56° SW 14:29:03 10° SE daylight
24 Feb - 16:18:42 10° WSW 16:26:02 22° SSW 16:33:19 10° SSE daylight
24 Feb - 18:28:32 10° SSW 18:34:54 18° S 18:41:08 10° SE daylight
24 Feb - 20:33:27 10° SSW 20:42:33 39° SSE 20:51:17 10° E visible
24 Feb - 22:38:06 10° SW 22:47:37 62° NW 22:56:45 10° NNE visible
25 Feb - 11:40:17 10° N 11:49:13 38° NE 11:58:16 10° ESE daylight
25 Feb - 13:43:47 10° WNW 13:53:45 61° SW 14:03:50 10° SE daylight
25 Feb - 15:52:56 10° WSW 16:00:31 23° SSW 16:08:03 10° SSE daylight
25 Feb - 18:03:05 10° SSW 18:09:21 18° S 18:15:29 10° SE daylight
25 Feb - 20:08:13 10° SSW 20:17:11 37° SSE 20:25:47 10° E visible
25 Feb - 22:12:46 10° SW 22:22:26 69° NW 22:31:40 10° NNE visible
